DK8PN Weather Reports


time (UTC)temp
C
wind
direction
speed
KPH
gust
KPH
rain 1hr
cm
rain 24hr
cm
rain mn
cm
humidity
%
barometer
mb
20260506113106 17 152 0.0 1.6 0.00 0.48 0.03 69 1003.6
20260506111555 17 132 0.0 0.0 0.00 0.48 0.03 67 1003.6
20260506104613 17 275 0.0 6.4 0.00 0.48 0.03 67 1003.8
20260506103053 17 317 0.0 8.0 0.00 0.48 0.03 70 1004.0
20260506101559 17 315 4.8 17.7 0.00 0.48 0.03 67 1004.0
20260506100049 17 85 0.0 6.4 0.00 0.48 0.03 70 1004.0
20260506094519 17 152 0.0 3.2 0.00 0.48 0.03 70 1004.2
20260506093018 17 133 0.0 14.5 0.00 0.48 0.03 67 1004.2
20260506091521 16 98 0.0 6.4 0.00 0.48 0.03 71 1004.1
20260506090016 16 360 0.0 3.2 0.00 0.48 0.03 71 1004.1
20260506084519 17 281 0.0 12.9 0.00 0.48 0.03 66 1004.3
20260506083013 17 317 0.0 0.0 0.00 0.48 0.03 74 1004.3
20260506081511 16 302 0.0 11.3 0.00 0.48 0.03 73 1004.3
20260506073005 15 180 0.0 0.0 0.00 0.48 0.03 77 1004.5
20260506071500 14 225 0.0 0.0 0.00 0.48 0.03 80 1004.3
20260506070103 13 130 0.0 0.0 0.00 0.48 0.03 82 1004.2
20260506061548 12 198 0.0 0.0 0.00 0.48 0.03 94 1004.6
20260506044535 9 198 0.0 0.0 0.00 0.48 0.03 96 1004.6
20260506043034 9 198 0.0 0.0 0.00 0.48 0.03 96 1004.7
20260506041544 8 198 0.0 0.0 0.00 0.48 0.03 96 1004.8
20260506040031 8 198 0.0 0.0 0.00 0.48 0.03 96 1004.8
20260506034530 8 224 0.0 0.0 0.00 0.48 0.03 96 1004.9
20260506033031 8 224 0.0 0.0 0.00 0.48 0.03 96 1004.8
20260506031528 8 224 0.0 0.0 0.00 0.48 0.03 96 1004.8
20260506030031 9 224 0.0 0.0 0.00 0.48 0.03 96 1004.7
20260506024524 9 221 0.0 0.0 0.00 0.48 0.03 96 1004.8
20260506023021 9 221 0.0 0.0 0.00 0.48 0.03 96 1005.4
20260506021521 9 221 0.0 0.0 0.00 0.48 0.03 96 1005.4
20260506020023 9 221 0.0 0.0 0.00 0.48 0.03 96 1005.4
20260506014519 9 221 0.0 0.0 0.00 0.48 0.03 95 1005.4
20260506013025 9 221 0.0 0.0 0.00 0.48 0.03 95 1005.3
20260506011514 10 221 0.0 0.0 0.00 0.48 0.03 95 1005.3
20260506010017 10 221 0.0 0.0 0.00 0.48 0.03 96 1005.3
20260506004518 10 184 0.0 0.0 0.00 0.48 0.03 96 1005.4
20260506003010 10 184 0.0 0.0 0.00 0.48 0.03 95 1005.6
20260506001508 10 184 0.0 0.0 0.00 0.48 0.03 95 1005.7
20260506000015 10 184 0.0 0.0 0.00 0.48 0.03 95 1005.9
20260505234513 11 184 0.0 0.0 0.03 0.48 0.03 96 1006.0
20260505233004 11 184 0.0 0.0 0.03 0.48 0.03 96 1006.0
20260505231502 11 184 0.0 0.0 0.03 0.48 0.03 95 1006.0
20260505230118 11 184 0.0 0.0 0.03 0.48 0.03 95 1006.0
20260505224551 11 184 0.0 0.0 0.00 0.46 0.00 95 1006.0
20260505223056 11 184 0.0 0.0 0.00 0.46 0.00 95 1005.9
20260505221551 11 184 0.0 0.0 0.00 0.46 0.00 95 1005.8
20260505220047 12 184 0.0 0.0 0.00 0.46 0.00 95 1005.9
20260505214558 12 184 0.0 0.0 0.00 0.46 0.46 95 1006.1
20260505213054 12 184 0.0 0.0 0.00 0.46 0.46 94 1006.2
20260505211543 12 184 0.0 0.0 0.00 0.46 0.46 95 1006.1
20260505210041 12 184 0.0 0.0 0.00 0.46 0.46 95 1006.0
20260505204540 12 178 0.0 0.0 0.00 0.46 0.46 95 1005.9
20260505203045 12 138 0.0 0.0 0.00 0.46 0.46 95 1005.8
20260505201549 12 138 0.0 0.0 0.00 0.46 0.46 95 1005.6
20260505200039 12 90 0.0 0.0 0.00 0.46 0.46 95 1005.5
20260505194540 13 90 0.0 0.0 0.00 0.46 0.46 94 1005.2
20260505193045 13 90 0.0 0.0 0.00 0.46 0.46 94 1005.2
20260505191548 13 90 0.0 0.0 0.03 0.46 0.46 94 1005.1
20260505190038 13 90 0.0 0.0 0.05 0.46 0.46 93 1005.0
20260505184535 13 90 0.0 0.0 0.08 0.46 0.46 93 1005.1
20260505183047 13 90 0.0 0.0 0.10 0.46 0.46 93 1005.0
20260505181533 13 90 0.0 0.0 0.08 0.43 0.43 92 1004.9
20260505180039 14 90 0.0 0.0 0.05 0.43 0.43 90 1004.8
20260505174538 14 216 0.0 0.0 0.03 0.38 0.38 88 1005.3
20260505173038 15 216 0.0 0.0 0.00 0.36 0.36 87 1005.1
20260505171539 15 172 0.0 0.0 0.00 0.36 0.36 85 1005.0
20260505170033 15 172 0.0 0.0 0.00 0.36 0.36 84 1004.9
20260505164536 15 174 0.0 0.0 0.00 0.36 0.36 84 1004.7
20260505163031 15 174 0.0 0.0 0.00 0.36 0.36 86 1004.8
20260505161529 14 157 0.0 1.6 0.00 0.36 0.36 87 1004.8
20260505153029 14 276 0.0 0.0 0.03 0.36 0.36 90 1005.4
20260505151524 13 276 0.0 0.0 0.05 0.36 0.36 89 1005.4
20260505124519 19 230 0.0 4.8 0.00 0.00 0.00 64 1004.8
20260505123020 19 253 3.2 14.5 0.00 0.00 0.00 62 1004.8
20260505121515 20 263 1.6 14.5 0.00 0.00 0.00 63 1004.8
20260505120013 20 286 0.0 11.3 0.00 0.00 0.00 63 1004.8
20260505114513 20 284 0.0 9.7 0.00 0.00 0.00 64 1004.8